Concordia, KS

1:31 PM CDT on October 23, 2019 (GMT -0500)
Blosser Municipal

Weather History for KCNK - August, 2019

Change the Weather History Date:

Saturday, August 31, 2019

  Actual Average Record
Temperature  
Mean Temperature 71 °F 74 °F  
Max Temperature 77 °F 86 °F 105 °F (1990)
Min Temperature 64 °F 62 °F 44 °F (2009)
Degree Days  
Heating Degree Days 0 0  
Month to date heating degree days 0 0  
Since 1 June heating degree days 0 16  
Since 1 July heating degree days 0 3  
Cooling Degree Days 6 10  
Month to date cooling degree days 372 376  
Year to date cooling degree days 1277 1166  
Since 1 June cooling degree days 1177 1077  
Growing Degree Days 20 (Base 50)    
Moisture  
Dew Point 62 °F    
Average Humidity 74    
Maximum Humidity 93    
Minimum Humidity 54    
Precipitation  
Precipitation T in 0.10 in 2.75 in (1932)
Month to date precipitation 6.61 3.14  
Year to date precipitation 28.84 21.10  
Snow  
Snow 0.00 in 0.00 in T in (1931)
Month to date snowfall 0.0 0.0  
Year to date snowfall 32.3 13.7  
Since 1 July snowfall 0.0 0.0  
Snow Depth 0.00 in    
Sea Level Pressure  
Sea Level Pressure 30.13 in    
Wind  
Wind Speed 7 mph (ESE)    
Max Wind Speed 16 mph    
Max Gust Speed 23 mph    
Visibility 10 miles    
Events Rain    
T = Trace of Precipitation, MM = Missing Value Source: NWS Daily Summary

Daily Weather History Graph

Daily Weather History Graph

Search for Another Location

Airport or City:

Astronomy

Aug. 31, 2019 Rise Set
Actual Time 6:57 AM CDT 8:03 PM CDT
Civil Twilight 6:30 AM CDT 8:31 PM CDT
Nautical Twilight 5:57 AM CDT 9:03 PM CDT
Astronomical Twilight 5:22 AM CDT 9:38 PM CDT
Moon 8:15 AM CDT (8/31) 9:17 PM CDT (8/31)
Length of Visible Light 14h 00m
Length of Day
13h 05m
New Moon, 3% of the Moon is Illuminated
Aug 31
New Moon
Sep 5
First Quarter
Sep 13
Full
Sep 21
Last Quarter
Sep 28
New

Hourly Weather History & Observations

Time (CDT) Temp. Dew Point Humidity Pressure Visibility Wind Dir Wind Speed Gust Speed Precip Events Conditions
12:55 AM 68.0 °F 64.0 °F 87% 30.13 in 10.0 mi SE 8.1 mph - N/A   Scattered Clouds
1:55 AM 66.9 °F 64.0 °F 90% 30.13 in 10.0 mi SE 6.9 mph - N/A   Mostly Cloudy
2:55 AM 66.9 °F 64.0 °F 90% 30.15 in 10.0 mi NNE 8.1 mph - N/A   Overcast
3:55 AM 66.0 °F 63.0 °F 90% 30.12 in 10.0 mi ESE 6.9 mph - N/A   Mostly Cloudy
4:55 AM 66.0 °F 63.0 °F 90% 30.12 in 10.0 mi Calm Calm - N/A   Overcast
5:55 AM 66.0 °F 63.0 °F 90% 30.11 in 10.0 mi East 5.8 mph - N/A   Overcast
6:55 AM 66.0 °F 63.0 °F 90% 30.14 in 10.0 mi Calm Calm - 0.00 in Rain Light Rain
7:06 AM 66.0 °F 63.0 °F 90% 30.18 in 10.0 mi NNE 4.6 mph - 0.00 in   Overcast
7:37 AM 66.0 °F 63.0 °F 90% 30.19 in 10.0 mi East 5.8 mph - 0.00 in Rain Light Rain
7:55 AM 64.9 °F 63.0 °F 93% 30.16 in 10.0 mi East 5.8 mph - 0.00 in   Overcast
8:55 AM 66.0 °F 64.0 °F 93% 30.14 in 10.0 mi ESE 5.8 mph - N/A   Mostly Cloudy
9:07 AM 66.0 °F 64.0 °F 93% 30.18 in 10.0 mi ESE 5.8 mph - N/A   Mostly Cloudy
9:52 AM 69.8 °F 64.4 °F 83% 30.19 in 10.0 mi ESE 6.9 mph - N/A   Overcast
9:55 AM 69.1 °F 64.0 °F 84% 30.16 in 10.0 mi North - - N/A   Mostly Cloudy
10:07 AM 69.1 °F 62.1 °F 78% 30.19 in 10.0 mi North - - N/A   Scattered Clouds
10:55 AM 70.0 °F 62.1 °F 76% 30.14 in 10.0 mi SSE 11.5 mph - N/A   Clear
11:55 AM 71.1 °F 62.1 °F 73% 30.13 in 10.0 mi ESE 9.2 mph - N/A   Partly Cloudy
12:55 PM 72.0 °F 64.0 °F 76% 30.13 in 10.0 mi SE 11.5 mph - N/A   Scattered Clouds
1:55 PM 73.0 °F 62.1 °F 68% 30.12 in 10.0 mi ESE 12.7 mph - N/A   Clear
2:55 PM 75.9 °F 62.1 °F 62% 30.10 in 10.0 mi ESE 10.4 mph - N/A   Clear
3:55 PM 75.9 °F 61.0 °F 60% 30.09 in 10.0 mi ESE 10.4 mph - N/A   Clear
4:55 PM 75.0 °F 59.0 °F 57% 30.09 in 10.0 mi SE 10.4 mph - N/A   Clear
5:55 PM 75.0 °F 57.9 °F 55% 30.08 in 10.0 mi SE 9.2 mph - N/A   Clear
6:55 PM 73.0 °F 59.0 °F 61% 30.08 in 10.0 mi ESE 4.6 mph - N/A   Clear
7:55 PM 70.0 °F 59.0 °F 68% 30.09 in 10.0 mi Calm Calm - N/A   Clear
8:55 PM 66.9 °F 60.1 °F 79% 30.10 in 10.0 mi East 3.5 mph - N/A   Clear
9:55 PM 64.9 °F 60.1 °F 84% 30.12 in 10.0 mi ESE 4.6 mph - N/A   Clear
10:55 PM 64.0 °F 62.1 °F 93% 30.12 in 10.0 mi SE 4.6 mph - N/A   Clear
11:55 PM 64.0 °F 62.1 °F 93% 30.12 in 10.0 mi SE 5.8 mph - N/A   Clear